• In Netherlands
  • List of Countries
  • For 7 days
  • Water Temperature
  • Satellite Maps
  • Weather Map
  • Weather Widgets
  • user-avatar
    Login

    Hourly Weather Sinemorec

    Today, 26 February, Sunday

    Time Temperature Precipitation Wind Pressure Humidity
    00:00 +5°C° 0.2 mm 4 mps 767 mmHg 89%
    01:00 +5°C° 0.2 mm 4 mps 768 mmHg 90%
    02:00 +5°C° 0.2 mm 4 mps 768 mmHg 90%
    03:00 +5°C° 0.1 mm 4 mps 768 mmHg 91%
    04:00 +5°C° 0.1 mm 4 mps 768 mmHg 91%
    05:00 +5°C° 0.1 mm 4 mps 768 mmHg 91%
    06:00 +5°C° 0 mm 4 mps 768 mmHg 90%
    07:00 +5°C° 0 mm 4 mps 768 mmHg 90%
    08:00 +5°C° 0 mm 4 mps 768 mmHg 89%
    09:00 +6°C° 0 mm 4 mps 768 mmHg 85%
    10:00 +7°C° 0 mm 4 mps 768 mmHg 82%
    11:00 +7°C° 0 mm 4 mps 768 mmHg 78%
    12:00 +8°C° 0 mm 4 mps 767 mmHg 77%
    13:00 +8°C° 0 mm 4 mps 767 mmHg 75%
    14:00 +10°C° 0 mm 4 mps 766 mmHg 74%
    15:00 +8°C° 0 mm 4 mps 766 mmHg 76%
    16:00 +9°C° 0 mm 3 mps 765 mmHg 78%
    17:00 +8°C° 0 mm 3 mps 765 mmHg 80%
    18:00 +7°C° 0 mm 3 mps 765 mmHg 83%
    19:00 +5°C° 0 mm 3 mps 765 mmHg 86%
    20:00 +5°C° 0 mm 2 mps 765 mmHg 89%
    21:00 +5°C° 0 mm 2 mps 765 mmHg 89%
    22:00 +5°C° 0 mm 2 mps 764 mmHg 90%
    23:00 +5°C° 0 mm 2 mps 764 mmHg 90%

    Tomorrow, 27 February, Monday

    Time Temperature Precipitation Wind Pressure Humidity
    00:00 +6°C° 0 mm 1 mps 764 mmHg 91%
    01:00 +6°C° 0 mm 1 mps 764 mmHg 91%
    02:00 +5°C° 0 mm 1 mps 764 mmHg 92%
    03:00 +5°C° 0 mm 1 mps 763 mmHg 92%
    04:00 +5°C° 0 mm 1 mps 763 mmHg 92%
    05:00 +5°C° 0 mm 1 mps 762 mmHg 92%
    06:00 +6°C° 0 mm 1 mps 763 mmHg 91%
    07:00 +7°C° 0 mm 1 mps 763 mmHg 89%
    08:00 +8°C° 0 mm 1 mps 763 mmHg 88%
    09:00 +10°C° 0 mm 1 mps 762 mmHg 82%
    10:00 +12°C° 0 mm 1 mps 762 mmHg 76%
    11:00 +14°C° 0 mm 1 mps 762 mmHg 70%
    12:00 +14°C° 0 mm 1 mps 762 mmHg 68%
    13:00 +15°C° 0 mm 1 mps 761 mmHg 67%
    14:00 +16°C° 0 mm 2 mps 761 mmHg 65%
    15:00 +15°C° 0 mm 2 mps 761 mmHg 69%
    16:00 +14°C° 0 mm 2 mps 761 mmHg 73%
    17:00 +13°C° 0 mm 2 mps 760 mmHg 77%
    18:00 +12°C° 0 mm 2 mps 761 mmHg 80%
    19:00 +10°C° 0 mm 2 mps 761 mmHg 83%
    20:00 +8°C° 0 mm 2 mps 761 mmHg 87%
    21:00 +8°C° 0 mm 2 mps 761 mmHg 87%
    22:00 +8°C° 0 mm 2 mps 761 mmHg 88%
    23:00 +8°C° 0 mm 2 mps 761 mmHg 89%

    Day after tomorrow, 28 February, Tuesday

    Time Temperature Precipitation Wind Pressure Humidity
    00:00 +7°C° 0 mm 2 mps 761 mmHg 89%
    01:00 +8°C° 0 mm 1 mps 760 mmHg 89%
    02:00 +8°C° 0 mm 1 mps 760 mmHg 89%
    03:00 +8°C° 0 mm 1 mps 760 mmHg 89%
    04:00 +8°C° 0 mm 1 mps 760 mmHg 89%
    05:00 +6°C° 0 mm 2 mps 759 mmHg 89%
    06:00 +7°C° 0 mm 2 mps 760 mmHg 88%
    07:00 +8°C° 0 mm 2 mps 760 mmHg 86%
    08:00 +9°C° 0 mm 2 mps 760 mmHg 85%
    09:00 +12°C° 0 mm 1 mps 760 mmHg 78%
    10:00 +13°C° 0 mm 1 mps 760 mmHg 71%
    11:00 +15°C° 0 mm 1 mps 760 mmHg 64%
    12:00 +16°C° 0 mm 2 mps 760 mmHg 63%
    13:00 +17°C° 0 mm 2 mps 759 mmHg 61%
    14:00 +17°C° 0 mm 2 mps 759 mmHg 60%
    15:00 +16°C° 0 mm 2 mps 758 mmHg 64%
    16:00 +16°C° 0 mm 2 mps 758 mmHg 69%
    17:00 +15°C° 0 mm 2 mps 758 mmHg 73%
    18:00 +14°C° 0 mm 2 mps 758 mmHg 77%
    19:00 +12°C° 0 mm 2 mps 758 mmHg 81%
    20:00 +10°C° 0 mm 3 mps 759 mmHg 85%
    21:00 +10°C° 0 mm 3 mps 759 mmHg 86%
    22:00 +10°C° 0 mm 3 mps 758 mmHg 88%
    23:00 +10°C° 0 mm 3 mps 758 mmHg 89%

    1 March, Wednesday

    Time Temperature Precipitation Wind Pressure Humidity
    00:00 +9°C° 0 mm 3 mps 758 mmHg 89%
    01:00 +9°C° 0 mm 3 mps 758 mmHg 89%
    02:00 +9°C° 0 mm 3 mps 757 mmHg 89%
    03:00 +9°C° 0 mm 3 mps 757 mmHg 88%
    04:00 +9°C° 0 mm 3 mps 757 mmHg 88%
    05:00 +8°C° 0 mm 4 mps 757 mmHg 88%
    06:00 +8°C° 0 mm 4 mps 757 mmHg 87%
    07:00 +10°C° 0 mm 4 mps 757 mmHg 86%
    08:00 +10°C° 0 mm 4 mps 757 mmHg 85%
    09:00 +12°C° 0 mm 5 mps 756 mmHg 79%
    10:00 +14°C° 0 mm 6 mps 756 mmHg 73%
    11:00 +15°C° 0 mm 6 mps 756 mmHg 67%
    12:00 +16°C° 0 mm 6 mps 755 mmHg 66%
    13:00 +17°C° 0 mm 6 mps 755 mmHg 65%
    14:00 +18°C° 0 mm 7 mps 754 mmHg 64%
    15:00 +17°C° 0 mm 6 mps 754 mmHg 67%
    16:00 +16°C° 0 mm 6 mps 753 mmHg 70%
    17:00 +15°C° 0 mm 5 mps 753 mmHg 72%
    18:00 +14°C° 0 mm 5 mps 753 mmHg 77%
    19:00 +13°C° 0 mm 6 mps 753 mmHg 82%
    20:00 +11°C° 0 mm 6 mps 753 mmHg 87%
    21:00 +12°C° 0 mm 5 mps 754 mmHg 88%
    22:00 +10°C° 0 mm 5 mps 754 mmHg 89%
    23:00 +10°C° 0 mm 5 mps 755 mmHg 90%

    2 March, Thursday

    Time Temperature Precipitation Wind Pressure Humidity
    00:00 +9°C° 0 mm 5 mps 755 mmHg 87%
    01:00 +9°C° 0 mm 5 mps 755 mmHg 84%
    02:00 +8°C° 0 mm 5 mps 756 mmHg 81%
    03:00 +8°C° 0 mm 6 mps 756 mmHg 78%
    04:00 +7°C° 0 mm 6 mps 757 mmHg 76%
    05:00 +6°C° 0 mm 7 mps 758 mmHg 74%
    06:00 +6°C° 0 mm 7 mps 758 mmHg 75%
    07:00 +6°C° 0 mm 7 mps 759 mmHg 76%
    08:00 +6°C° 0 mm 7 mps 760 mmHg 76%
    09:00 +8°C° 0 mm 6 mps 760 mmHg 72%
    10:00 +8°C° 0 mm 6 mps 760 mmHg 68%
    11:00 +9°C° 0 mm 5 mps 761 mmHg 64%
    12:00 +11°C° 0 mm 4 mps 761 mmHg 61%
    13:00 +12°C° 0 mm 4 mps 761 mmHg 57%
    14:00 +13°C° 0 mm 3 mps 761 mmHg 54%
    15:00 +12°C° 0 mm 3 mps 761 mmHg 56%
    16:00 +13°C° 0 mm 2 mps 761 mmHg 59%
    17:00 +13°C° 0 mm 1 mps 761 mmHg 62%
    18:00 +10°C° 0 mm 2 mps 762 mmHg 65%
    19:00 +9°C° 0 mm 2 mps 762 mmHg 68%
    20:00 +7°C° 0 mm 2 mps 762 mmHg 71%
    21:00 +7°C° 0 mm 2 mps 763 mmHg 71%
    22:00 +7°C° 0 mm 2 mps 763 mmHg 71%
    23:00 +7°C° 0 mm 2 mps 763 mmHg 72%

    3 March, Friday

    Time Temperature Precipitation Wind Pressure Humidity
    00:00 +6°C° 0 mm 2 mps 763 mmHg 72%
    01:00 +6°C° 0 mm 2 mps 763 mmHg 72%
    02:00 +6°C° 0 mm 2 mps 763 mmHg 72%
    03:00 +5°C° 0 mm 3 mps 763 mmHg 72%
    04:00 +5°C° 0 mm 3 mps 764 mmHg 73%
    05:00 +5°C° 0 mm 3 mps 764 mmHg 73%
    06:00 +5°C° 0 mm 3 mps 764 mmHg 73%
    07:00 +5°C° 0 mm 3 mps 765 mmHg 73%
    08:00 +7°C° 0 mm 3 mps 765 mmHg 73%
    09:00 +8°C° 0 mm 3 mps 765 mmHg 69%
    10:00 +10°C° 0 mm 3 mps 766 mmHg 64%
    11:00 +11°C° 0 mm 3 mps 766 mmHg 59%
    12:00 +12°C° 0 mm 3 mps 766 mmHg 57%
    13:00 +12°C° 0 mm 3 mps 765 mmHg 56%
    14:00 +13°C° 0 mm 2 mps 765 mmHg 54%
    15:00 +13°C° 0 mm 2 mps 765 mmHg 58%
    16:00 +12°C° 0 mm 2 mps 765 mmHg 62%
    17:00 +10°C° 0 mm 2 mps 765 mmHg 66%
    18:00 +9°C° 0 mm 2 mps 765 mmHg 71%
    19:00 +7°C° 0 mm 2 mps 766 mmHg 76%
    20:00 +6°C° 0 mm 2 mps 766 mmHg 82%
    21:00 +6°C° 0 mm 2 mps 766 mmHg 81%
    22:00 +5°C° 0 mm 2 mps 766 mmHg 80%
    23:00 +5°C° 0 mm 2 mps 766 mmHg 79%
    Show more